STARLINK-33560, 62282

Orbit data source: Space-Track

STARLINK-33560, 62282 is a payload satellite owned by SpaceX/Seattle (US) in LEO that was launched on Sun, 08 Dec 2024 UTC via an FALCON 9 launch vehicle from the Air Force Eastern Test Range (AFETR). Payload-class satellites include a variety of spacecraft equipped with specific instruments for various scientific and technological missions. These include communications satellites like Starlink; space stations such as the ISS; scientific satellites like the Hubble; Earth observation satellites from companies like Planet Labs, Umbra, and HawkEye 360; GPS; miniature CubeSats for education and research; and military/defense satellites.

Loading next visibility...
Identifier
62282, 2024-237R
Orbit
LEO
Country
Flag of USUS
Related business
Manufacturer
SpaceX/Seattle
Mission
Operational Commercial Communications
Bus & Motor
STARLINK V2MO, Unknown motor
Mass
530 kg wet, ~500 kg dry
Launch date (UTC)
2024-12-08 (2 years ago)
Launch vehicle
FALCON 9
Launch site
Air Force Eastern Test Range (AFETR)
Object type
Payload
Rocket body
Debris
Shape & HBR
Box + 2 Pan, 17.7 m
Radar Cross Section
36.964 m², Large (>1 m²)

Expand to show TLE details & history
Last TLE update: 2 days ago

TLE from 2 days ago
0 STARLINK-33560
1 62282U 24237R   26170.24577381  .00017966  00000-0  66047-3 0  9996
2 62282  43.0021   2.8217 0001037 268.9786  91.0947 15.27597086 86632
Epoch: 2026-06-19T05:53Z
TLE epoch observation values (Epoch: 2026-06-19T05:53:54.857Z)
Latitude
Longitude
6.86562°
Altitude
482.787 km
Speed
7.626 km/s
True Right ascension
00h 11m 17s
True Declination
0° 00' 00"
Sunlit
Object was in daylight at epoch
Visualization orbit readout
Latitude
Unknown
Longitude
Unknown
Altitude
Unknown
Speed
Unknown
Apparent Right ascension
Unknown
Apparent Declination
Unknown
Sunlit
N/A
Visualization observer readout
Local Sidereal Time
07:23:54
Azimuth
Unknown
Elevation
Unknown
Doppler factor
Unknown
Orbital elements
Apogee altitude
485.654 km
Perigee altitude
484.231 km
Semi-major axis
6,863.08 km
Eccentricity
0.0001
Inclination
43.0021°
RAAN
2.8217°
Arg. of periapsis
268.9786°
True anomaly
91.10658°
Mean anomaly
91.0947°
Eccentric anomaly
91.10064°
Mean motion
3.81737 °/min
Orbital period
94.31 mins
BSTAR
0.00066047
Loading maneuver chart data...
Computing Atmospheric mass density...
Loading historical data...
Loading historical data...
Loading historical data...
Loading historical data...
Loading historical data...
Loading historical data...
Loading historical data...

Documentation

Showing up to 5 results
|